[[{"header":{"parameterUnit":"m.s-1","parameterCategory":1,"la1":30.2991,"la2":30.254,"lo1":-89.0895,"lo2":-89.0444,"dy":0.0017,"dx":0.0017,"nx":28,"ny":28,"refTime":"2025-03-29T03:00:00:Z","depth":0,"parameterNumber":2,"parameterNumberName":"U-component_of_WINDS"},"data":[0,0,0,0,0,0,0,0,0,0,0,0,0,0,0,0,0,0,0,0,0,0,0,0,0,0,0,0,0,0,0,0,0,0,0,0,0,0,0,0,0,0,0,0,0,0,0,0,0,0,0,0,0,0,0,0,0,0,-5.2968,-5.2969,0,-5.3094,-5.3096,-5.3097,-5.31,-5.3098,-5.3097,-5.3095,-5.3224,-5.3228,-5.3233,0,0,0,0,0,0,0,0,0,0,0,0,0,-5.2728,-5.2732,-5.2968,-5.2969,-5.2971,-5.3094,-5.3096,-5.3098,-5.31,-5.3098,-5.3096,-5.3094,-5.3222,-5.3228,-5.3234,0,0,0,0,0,0,0,0,0,0,0,0,0,-5.2841,-5.2734,-5.2967,-5.2987,-5.299,-5.3094,-5.3096,-5.3098,-5.31,-5.3098,-5.3096,-5.3093,-5.322,-5.3227,-5.3234,-5.3327,0,0,-5.3257,-5.326,0,0,0,0,0,0,0,0,-5.2835,-5.285,-5.2982,-5.2986,-5.2989,-5.3079,-5.3059,-5.3175,-5.3101,-5.3058,-5.3095,-5.3092,-5.3177,-5.3188,-5.3217,-5.3333,-5.3338,-5.3257,-5.3262,-5.3265,-5.3267,0,0,0,0,0,0,0,-5.2827,-5.2844,-5.3018,-5.2984,-5.2989,-5.2989,-5.3003,-5.3081,-5.3129,-5.3062,-5.3062,-5.3077,-5.3179,-5.321,-5.322,-5.334,-5.3257,-5.3264,-5.3268,-5.3271,-5.354,-5.3542,0,0,0,0,0,0,-5.2815,-5.2838,-5.3014,-5.3021,-5.2905,-5.2996,-5.3011,-5.3052,-5.3129,-5.3138,-5.3079,-5.3077,-5.3198,-5.3211,-5.3224,-5.3337,-5.3265,-5.3272,-5.3276,-5.3537,-5.354,-5.3543,0,0,0,0,0,0,-5.281,-5.2831,-5.3009,-5.293,-5.2953,-5.3002,-5.3049,-5.3056,-5.3087,-5.3142,-5.315,-5.3102,-5.3197,-5.3214,-5.3302,-5.3342,-5.3275,-5.3282,-5.3534,-5.3538,-5.3542,-5.3564,0,0,0,0,0,0,-5.2803,-5.2829,-5.2864,-5.2931,-5.2957,-5.3083,-5.3052,-5.306,-5.31,-5.3098,-5.3165,-5.3174,-5.3196,-5.3291,-5.3309,-5.3351,-5.3288,-5.353,-5.3536,-5.3541,-5.356,-5.3568,-5.3576,0,0,0,0,0,-5.2795,-5.2865,-5.2866,-5.2887,-5.3002,-5.3086,-5.3101,-5.3125,-5.3103,-5.3139,-5.3175,-5.3172,-5.3335,-5.33,-5.332,-5.3365,-5.3528,-5.3534,-5.354,-5.3556,-5.3567,-5.3576,0,0,0,0,0,0,-5.2801,-5.2874,-5.2876,-5.297,-5.3022,-5.3086,-5.3132,-5.3135,-5.3194,-5.319,-5.3218,-5.3233,-5.332,-5.3352,-5.3311,-5.3459,-5.3429,-5.344,-5.3434,-5.3445,-5.3452,-5.3442,-5.3294,0,0,0,0,0,-5.2813,-5.2875,-5.2936,-5.3013,-5.3039,-5.3081,-5.3119,-5.3134,-5.3188,-5.321,-5.3251,-5.3304,-5.3368,-5.3408,-5.347,-5.3566,-5.358,-5.3607,-5.3615,-5.3621,-5.3629,-5.3682,-5.3695,-5.3564,-5.3564,-5.3563,0,0,-5.2839,-5.2887,-5.2924,-5.3016,-5.3057,-5.3121,-5.3099,-5.3167,-5.3215,-5.322,-5.3305,-5.3338,-5.3399,-5.3491,-5.3534,-5.352,-5.3669,-5.3629,-5.3634,-5.3638,-5.369,-5.3702,-5.3713,-5.3568,-5.3567,-5.3566,0,0,-5.2918,-5.2961,-5.303,-5.3073,-5.3137,-5.3165,-5.3182,-5.3247,-5.3269,-5.3355,-5.3361,-5.3418,-5.3527,-5.357,-5.3606,-5.3705,-5.3705,-5.3725,-5.3765,-5.3817,-5.3827,-5.3836,-5.387,-5.3882,-5.3733,-5.3733,-5.3733,0,-5.2942,-5.3038,-5.3065,-5.3133,-5.3173,-5.3183,-5.3253,-5.3294,-5.3374,-5.3402,-5.3386,-5.3523,-5.3565,-5.3668,-5.3692,-5.3722,-5.3742,-5.3715,-5.3823,-5.3833,-5.3842,-5.3875,-5.3888,-5.3735,-5.3735,-5.3735,-5.3735,0,-5.3063,-5.313,-5.3178,-5.3257,-5.3303,-5.3372,-5.341,-5.3453,-5.3465,-5.3495,-5.3583,-5.3635,-5.3706,-5.3733,-5.3745,-5.3838,-5.3827,-5.3817,-5.3787,-5.3856,-5.3887,-5.39,-5.3738,-5.3737,-5.3736,-5.3736,0,0,-5.3146,-5.3241,-5.3258,-5.3294,-5.3367,-5.3419,-5.349,-5.3561,-5.3597,-5.3654,-5.3713,-5.3806,-5.3798,-5.3839,-5.3857,-5.3902,-5.3977,-5.3887,-5.3889,-5.39,-5.4082,-5.4087,-5.4101,-5.3979,-5.3981,-5.3983,-5.4076,0,-5.3232,-5.3356,-5.3384,-5.3491,-5.3553,-5.3565,-5.3626,-5.3677,-5.3708,-5.3765,-5.38,-5.3865,-5.385,-5.3875,-5.3921,-5.3958,-5.4013,-5.3952,-5.4033,-5.4035,-5.4014,-5.4118,-5.4123,-5.4208,-5.4089,-5.4091,-5.4092,0,-5.3347,-5.3407,-5.352,-5.3586,-5.3613,-5.3668,-5.3736,-5.3791,-5.385,-5.387,-5.3917,-5.3931,-5.4004,-5.3974,-5.4075,-5.4033,-5.4069,-5.4092,-5.4096,-5.4102,-5.4066,-5.4124,-5.4236,-5.4247,-5.4112,-5.4111,-5.4109,0,-5.3394,-5.3503,-5.3585,-5.3616,-5.3696,-5.3734,-5.3768,-5.3826,-5.3867,-5.3928,-5.3955,-5.4023,-5.4059,-5.4112,-5.4144,-5.4118,-5.4243,-5.4215,-5.426,-5.426,-5.4283,-5.4281,-5.4399,-5.4311,-5.431,-5.431,-5.431,0,-5.3485,-5.3553,-5.3607,-5.3657,-5.3735,-5.3768,-5.3843,-5.3878,-5.393,-5.3987,-5.4003,-5.4056,-5.4096,-5.4155,-5.4181,-5.4261,-5.4278,-5.4295,-5.4301,-5.4292,-5.429,-5.4314,-5.4308,-5.4314,-5.4313,-5.4312,-5.4312,0,-5.3549,-5.3588,-5.3678,-5.3747,-5.3766,-5.382,-5.3879,-5.3928,-5.3961,-5.4033,-5.4052,-5.4103,-5.4174,-5.4212,-5.43,-5.4317,-5.4407,-5.441,-5.4386,-5.4388,-5.4431,-5.4426,-5.4567,-5.4586,-5.4486,-5.4487,-5.4488,0,-5.3603,-5.3656,-5.3731,-5.3771,-5.3807,-5.387,-5.3913,-5.3949,-5.3993,-5.4066,-5.4106,-5.4178,-5.4237,-5.435,-5.4395,-5.4463,-5.4467,-5.4512,-5.4477,-5.4467,-5.4465,-5.4461,-5.4466,-5.4517,-5.4518,-5.4518,-5.4519,0,-5.3694,-5.3712,-5.3773,-5.3842,-5.3892,-5.3948,-5.4003,-5.4035,-5.408,-5.4129,-5.4201,-5.4247,-5.4339,-5.441,-5.4482,-5.4518,-5.4526,-5.453,-5.4544,-5.4534,-5.4518,-5.4526,-5.44,-5.4526,-5.4525,-5.4525,-5.4524,-5.4524,-5.3754,-5.3801,-5.3862,-5.393,-5.3976,-5.4027,-5.4077,-5.4117,-5.4178,-5.4255,-5.4273,-5.435,-5.441,-5.4508,-5.4547,-5.4607,-5.4598,-5.4618,-5.4623,-5.4627,-5.4628,-5.4511,-5.4621,-5.4621,-5.4621,-5.4621,-5.462,0,-5.3844,-5.3884,-5.3947,-5.4024,-5.4078,-5.4083,-5.4144,-5.4189,-5.4256,-5.4312,-5.437,-5.4455,-5.4524,-5.4576,-5.4647,-5.4686,-5.4692,-5.4703,-5.4699,-5.4708,-5.4633,-5.4613,-5.4698,-5.4698,-5.4698,-5.4698,-5.4698,-5.4698,-5.3897,-5.3978,-5.4003,-5.4107,-5.4148,-5.4223,-5.4258,-5.4306,-5.435,-5.4444,-5.4502,-5.4536,-5.459,-5.4666,-5.473,-5.4744,-5.4768,-5.478,-5.4793,-5.4721,-5.4713,-5.4705,-5.4686,-5.4785,-5.4785,-5.4863,-5.4863,-5.4864]},{"header":{"parameterUnit":"m.s-1","parameterCategory":1,"la1":30.2991,"la2":30.254,"lo1":-89.0895,"lo2":-89.0444,"dy":0.0017,"dx":0.0017,"nx":28,"ny":28,"refTime":"2025-03-29T03:00:00:Z","depth":0,"parameterNumber":3,"parameterNumberName":"V-component_of_WINDS"},"data":[0,0,0,0,0,0,0,0,0,0,0,0,0,0,0,0,0,0,0,0,0,0,0,0,0,0,0,0,0,0,0,0,0,0,0,0,0,0,0,0,0,0,0,0,0,0,0,0,0,0,0,0,0,0,0,0,0,0,4.2324,4.2324,0,4.2369,4.2369,4.237,4.2364,4.2363,4.2362,4.2361,4.2404,4.2405,4.2407,0,0,0,0,0,0,0,0,0,0,0,0,0,4.223,4.2232,4.2324,4.2324,4.2325,4.2369,4.2369,4.237,4.2364,4.2363,4.2362,4.2361,4.2403,4.2405,4.2407,0,0,0,0,0,0,0,0,0,0,0,0,0,4.2272,4.2232,4.2323,4.2327,4.2328,4.2369,4.2369,4.237,4.2364,4.2363,4.2362,4.2361,4.2402,4.2405,4.2408,4.2446,0,0,4.2416,4.2417,0,0,0,0,0,0,0,0,4.227,4.2276,4.2326,4.2327,4.2328,4.236,4.2352,4.2395,4.2364,4.235,4.2361,4.236,4.239,4.2393,4.2404,4.2448,4.245,4.2416,4.2418,4.2419,4.242,0,0,0,0,0,0,0,4.2267,4.2274,4.2341,4.2327,4.2328,4.2326,4.2331,4.236,4.2375,4.2351,4.2351,4.2357,4.239,4.2401,4.2405,4.2451,4.2416,4.2418,4.242,4.2421,4.2532,4.2533,0,0,0,0,0,0,4.2264,4.2271,4.234,4.2343,4.2296,4.2328,4.2334,4.235,4.2375,4.2378,4.2357,4.2356,4.2397,4.2402,4.2406,4.2455,4.2419,4.2421,4.2423,4.253,4.2532,4.2533,0,0,0,0,0,0,4.2262,4.227,4.2338,4.2307,4.2316,4.2331,4.235,4.2352,4.2363,4.238,4.2382,4.2367,4.2397,4.2403,4.2437,4.2456,4.2423,4.2425,4.2529,4.2531,4.2533,4.2551,0,0,0,0,0,0,4.2259,4.2269,4.2284,4.2308,4.2317,4.2369,4.2351,4.2354,4.2369,4.2367,4.2389,4.2391,4.2396,4.2433,4.244,4.2459,4.2427,4.2527,4.253,4.2532,4.2549,4.2554,4.2557,0,0,0,0,0,4.2256,4.2286,4.2285,4.2293,4.2337,4.237,4.2375,4.2381,4.237,4.2385,4.2396,4.2391,4.2453,4.2437,4.2444,4.2465,4.2526,4.2529,4.2532,4.2547,4.2553,4.2557,0,0,0,0,0,0,4.2262,4.2289,4.2288,4.2327,4.2347,4.2369,4.2388,4.2387,4.2408,4.2406,4.2411,4.2416,4.2452,4.2462,4.2443,4.2505,4.2488,4.2493,4.2497,4.2502,4.2507,4.2503,4.243,0,0,0,0,0,4.2269,4.2295,4.2316,4.2349,4.2359,4.2372,4.2386,4.239,4.2409,4.2417,4.243,4.2449,4.2473,4.2488,4.2511,4.2551,4.2556,4.2569,4.2573,4.2576,4.258,4.2603,4.261,4.2543,4.2543,4.2543,0,0,4.2281,4.2299,4.2315,4.2351,4.2366,4.2392,4.2379,4.2406,4.2426,4.2421,4.2455,4.2466,4.2487,4.2525,4.2542,4.2534,4.26,4.258,4.2583,4.2584,4.2607,4.2613,4.2619,4.2545,4.2545,4.2544,0,0,4.2318,4.2334,4.2364,4.2381,4.2405,4.2414,4.2422,4.2445,4.2452,4.2487,4.2485,4.2508,4.2549,4.2564,4.2578,4.2624,4.262,4.2631,4.2653,4.2676,4.2681,4.2686,4.2703,4.2709,4.2635,4.2635,4.2635,0,4.233,4.2371,4.2379,4.2408,4.2424,4.2424,4.2454,4.2469,4.2499,4.251,4.2501,4.2555,4.2568,4.2611,4.2623,4.2633,4.2642,4.2628,4.268,4.2685,4.2689,4.2706,4.2712,4.2636,4.2636,4.2636,4.2636,0,4.2385,4.2413,4.2434,4.2466,4.2485,4.2514,4.2527,4.2545,4.2547,4.2557,4.2594,4.2611,4.2638,4.2649,4.265,4.2692,4.2687,4.2679,4.2662,4.2697,4.2712,4.2719,4.2638,4.2638,4.2637,4.2637,0,0,4.2425,4.2464,4.2471,4.2487,4.2515,4.2537,4.2567,4.2595,4.2611,4.2632,4.2658,4.2694,4.2688,4.2703,4.2707,4.2727,4.2764,4.2717,4.2717,4.2725,4.2812,4.2818,4.2825,4.2762,4.2763,4.2764,4.2811,0,4.2465,4.252,4.253,4.2577,4.2604,4.2605,4.2632,4.2652,4.2663,4.2686,4.2698,4.2724,4.2713,4.2723,4.2743,4.2755,4.2781,4.2752,4.2785,4.2786,4.278,4.2833,4.2839,4.2882,4.2817,4.2818,4.2819,0,4.2518,4.2544,4.2595,4.2623,4.2634,4.2658,4.2686,4.2709,4.2732,4.2739,4.2758,4.276,4.2791,4.2774,4.2817,4.2797,4.2811,4.2819,4.2821,4.2824,4.2804,4.2838,4.2896,4.2902,4.2828,4.2827,4.2827,0,4.2544,4.2591,4.2628,4.2641,4.2673,4.269,4.2704,4.2727,4.2744,4.2769,4.278,4.2807,4.2822,4.2843,4.2852,4.2839,4.2896,4.2878,4.2902,4.2902,4.2913,4.2912,4.2974,4.2922,4.2922,4.2922,4.2922,0,4.2587,4.2619,4.264,4.2663,4.2698,4.271,4.2744,4.2758,4.2778,4.2803,4.2806,4.2829,4.284,4.2865,4.2873,4.2908,4.2914,4.292,4.2922,4.292,4.292,4.2929,4.2927,4.2924,4.2923,4.2923,4.2923,0,4.2621,4.2637,4.2678,4.2707,4.2715,4.2739,4.2764,4.2786,4.2798,4.283,4.2838,4.2856,4.2886,4.2898,4.2934,4.2939,4.298,4.2979,4.2973,4.2973,4.2996,4.2994,4.3066,4.3077,4.3018,4.3018,4.3019,0,4.2648,4.2673,4.2705,4.2723,4.2739,4.2767,4.2786,4.2799,4.2818,4.2848,4.2867,4.2897,4.2922,4.297,4.2986,4.3014,4.3013,4.3037,4.3017,4.3016,4.3015,4.3013,4.3016,4.304,4.3041,4.3042,4.3042,0,4.2694,4.2702,4.273,4.2761,4.2784,4.2809,4.2833,4.2847,4.2863,4.2885,4.2917,4.2937,4.2975,4.3005,4.3035,4.3048,4.3048,4.3048,4.3055,4.3054,4.3049,4.3053,4.2983,4.3046,4.3046,4.3046,4.3045,4.3045,4.2726,4.2749,4.2776,4.2808,4.2828,4.2851,4.2874,4.289,4.2918,4.2951,4.2957,4.2991,4.3015,4.3055,4.307,4.3097,4.309,4.31,4.3103,4.3105,4.3107,4.3046,4.3102,4.3102,4.3102,4.3102,4.3102,0,4.2773,4.2792,4.2821,4.2856,4.2881,4.2881,4.2908,4.2929,4.296,4.2983,4.3009,4.3046,4.3077,4.3096,4.3126,4.3144,4.3145,4.3151,4.315,4.3154,4.311,4.3102,4.3151,4.3151,4.3151,4.3151,4.3151,4.3151,4.2801,4.284,4.2851,4.2901,4.2919,4.2954,4.297,4.2991,4.3011,4.3053,4.3079,4.3092,4.3114,4.3147,4.3174,4.3179,4.319,4.3198,4.3202,4.3161,4.3156,4.3151,4.3143,4.32,4.32,4.3243,4.3244,4.3244]}]]